2023/03/01 00:00:00,13.2, 1.7
2023/03/01 00:10:00,13.2, 2.0
2023/03/01 00:20:00,13.2, 1.9
2023/03/01 00:30:00,13.2, 1.6
2023/03/01 00:40:00,13.2, 1.8
2023/03/01 00:50:00,13.2, 1.7
2023/03/01 01:00:00,13.2, 1.7
2023/03/01 01:10:00,13.2, 1.9
2023/03/01 01:20:00,13.2, 2.0
2023/03/01 01:30:00,13.2, 1.6
2023/03/01 01:40:00,13.1, 1.7
2023/03/01 01:50:00,13.1, 1.8
2023/03/01 02:00:00,13.1, 2.0
2023/03/01 02:10:00,13.1, 1.8
2023/03/01 02:20:00,13.1, 1.7
2023/03/01 02:30:00,13.2, 1.7
2023/03/01 02:40:00,13.1, 1.8
2023/03/01 02:50:00,13.1, 1.8
2023/03/01 03:00:00,13.1, 1.7
2023/03/01 03:10:00,13.1, 1.9
2023/03/01 03:20:00,13.1, 1.8
2023/03/01 03:30:00,13.1, 2.0
2023/03/01 03:40:00,13.1, 1.7
2023/03/01 03:50:00,13.1, 1.8
2023/03/01 04:00:00,13.1, 2.0
2023/03/01 04:10:00,13.1, 1.7
2023/03/01 04:20:00,13.1, 1.8
2023/03/01 04:30:00,13.1, 1.6
2023/03/01 04:40:00,13.1, 1.6
2023/03/01 04:50:00,13.1, 1.6
2023/03/01 05:00:00,13.1, 1.5
2023/03/01 05:10:00,13.1, 1.7
2023/03/01 05:20:00,13.1, 1.6
2023/03/01 05:30:00,13.1, 1.6
2023/03/01 05:40:00,13.1, 1.6
2023/03/01 05:50:00,13.1, 1.4
2023/03/01 06:00:00,13.1, 1.6
2023/03/01 06:10:00,13.1, 1.4
2023/03/01 06:20:00,13.1, 1.5
2023/03/01 06:30:00,13.1, 1.7
2023/03/01 06:40:00,13.1, 1.5
2023/03/01 06:50:00,13.1, 1.6
2023/03/01 07:00:00,13.0, 1.6
2023/03/01 07:10:00,13.1, 1.7
2023/03/01 07:20:00,13.0, 1.7
2023/03/01 07:30:00,13.0, 2.0
2023/03/01 07:40:00,13.0, 1.9
2023/03/01 07:50:00,13.1, 2.0
2023/03/01 08:00:00,13.1, 2.3
2023/03/01 08:10:00,13.0, 2.5
2023/03/01 08:20:00,13.0, 2.7
2023/03/01 08:30:00,13.1, 3.0
2023/03/01 08:40:00,13.1, 3.4
2023/03/01 08:50:00,13.0, 3.9
2023/03/01 09:00:00,13.0, 4.9
2023/03/01 09:10:00,12.9, 5.1
2023/03/01 09:20:00,12.9, 5.9
2023/03/01 09:30:00,13.0, 7.1
2023/03/01 09:40:00,13.1, 7.9
2023/03/01 09:50:00,13.0, 8.6
2023/03/01 10:00:00,13.0, 8.4
2023/03/01 10:10:00,13.1, 8.8
2023/03/01 10:20:00,---, 9.8
2023/03/01 10:30:00, 0.0,10.6
2023/03/01 10:40:00, 0.0,12.6
2023/03/01 10:50:00, 0.0,13.6
2023/03/01 11:00:00, 0.0,15.2
2023/03/01 11:10:00, 0.0,15.9
2023/03/01 11:20:00,11.9,15.4
2023/03/01 11:30:00,11.5,14.8
2023/03/01 11:40:00,11.4,14.2
2023/03/01 11:50:00,11.4,14.3
2023/03/01 12:00:00,11.1,14.1
2023/03/01 12:10:00,10.7,13.5
2023/03/01 12:20:00,10.8,12.3
2023/03/01 12:30:00,10.6,11.7
2023/03/01 12:40:00,10.5,11.5
2023/03/01 12:50:00,10.5,10.5
2023/03/01 13:00:00,10.7,10.4
2023/03/01 13:10:00,10.6,10.6
2023/03/01 13:20:00,10.6,10.5
2023/03/01 13:30:00,10.5,10.9
2023/03/01 13:40:00,10.4,10.9
2023/03/01 13:50:00,10.6,11.1
2023/03/01 14:00:00,10.6,11.1
2023/03/01 14:10:00,10.0,10.6
2023/03/01 14:20:00, 9.9,10.2
2023/03/01 14:30:00, 9.8,10.0
2023/03/01 14:40:00, 9.7, 9.5
2023/03/01 14:50:00, 9.7, 9.9
2023/03/01 15:00:00, 9.5,10.2
2023/03/01 15:10:00, 9.5,10.5
2023/03/01 15:20:00, 9.0,11.2
2023/03/01 15:30:00, 8.9,11.8
2023/03/01 15:40:00, 8.4,12.1
2023/03/01 15:50:00, 8.3,12.0
2023/03/01 16:00:00, 8.6,13.2
2023/03/01 16:10:00, 8.4,11.4
2023/03/01 16:20:00, 8.5,10.6
2023/03/01 16:30:00, 8.0,10.6
2023/03/01 16:40:00, 8.0, 9.8
2023/03/01 16:50:00, 8.1, 9.5
2023/03/01 17:00:00, 7.9, 8.5
2023/03/01 17:10:00, 7.3, 8.5
2023/03/01 17:20:00, 6.9, 7.9
2023/03/01 17:30:00, 7.0, 7.5
2023/03/01 17:40:00, 6.8, 7.4
2023/03/01 17:50:00, 7.0, 7.0
2023/03/01 18:00:00, 7.0, 7.0
2023/03/01 18:10:00, 6.8, 7.0
2023/03/01 18:20:00, 6.8, 6.7
2023/03/01 18:30:00, 6.8, 6.5
2023/03/01 18:40:00, 6.7, 6.2
2023/03/01 18:50:00, 6.7, 6.0
2023/03/01 19:00:00, 6.7, 5.7
2023/03/01 19:10:00, 6.5, 6.0
2023/03/01 19:20:00, 6.3, 5.7
2023/03/01 19:30:00, 6.3, 5.6
2023/03/01 19:40:00, 6.2, 5.5
2023/03/01 19:50:00, 6.2, 5.5
2023/03/01 20:00:00, 6.2, 5.5
2023/03/01 20:10:00, 6.2, 5.1
2023/03/01 20:20:00, 6.2, 5.4
2023/03/01 20:30:00, 6.1, 5.3
2023/03/01 20:40:00, 6.2, 5.2
2023/03/01 20:50:00, 6.2, 5.5
2023/03/01 21:00:00, 6.2, 5.0
2023/03/01 21:10:00, 6.5, 5.1
2023/03/01 21:20:00, 6.4, 5.1
2023/03/01 21:30:00, 6.3, 5.1
2023/03/01 21:40:00, 6.1, 5.1
2023/03/01 21:50:00, 6.2, 5.3
2023/03/01 22:00:00, 6.4, 5.2
2023/03/01 22:10:00, 6.3, 5.1
2023/03/01 22:20:00, 6.1, 4.9
2023/03/01 22:30:00, 6.0, 4.9
2023/03/01 22:40:00, 6.0, 4.7
2023/03/01 22:50:00, 6.0, 4.9
2023/03/01 23:00:00, 6.0, 4.9
2023/03/01 23:10:00, 6.0, 4.8
2023/03/01 23:20:00, 6.0, 4.9
2023/03/01 23:30:00, 5.9, 4.9
2023/03/01 23:40:00, 5.9, 4.9
2023/03/01 23:50:00, 5.8, 4.6
